FW7135 Weather Reports


Display with metric or nautical units.
time (UTC)temp
F
wind
direction
speed
MPH
gust
MPH
rain 1hr
in
rain 24hr
in
rain mn
in
humidity
%
barometer
mb
20260505054600 40 0 0.0 4.0 0.00 0.04 0.04 92 1013.9
20260505053048 40 353 1.0 4.0 0.00 0.04 0.04 92 1013.8
20260505051540 40 321 4.0 7.0 0.00 0.04 0.04 92 1013.8
20260505041545 40 359 2.0 5.0 0.01 0.04 0.04 89 1013.3
20260505040040 40 30 3.0 5.0 0.01 0.04 0.04 89 1013.1
20260505034543 41 17 2.0 6.0 0.02 0.04 0.04 89 1013.0
20260505033042 41 336 2.0 5.0 0.02 0.04 0.04 89 1013.5
20260505031556 41 0 1.0 4.0 0.01 0.03 0.03 88 1013.2
20260505030038 42 6 2.0 6.0 0.01 0.03 0.03 88 1013.3
20260505024540 42 335 1.0 4.0 0.00 0.02 0.02 86 1013.4
20260505023040 42 345 2.0 4.0 0.01 0.02 0.02 85 1013.0
20260505021547 42 350 2.0 5.0 0.02 0.02 0.02 85 1013.0
20260505020041 42 347 1.0 4.0 0.02 0.02 0.02 85 1013.0
20260505014543 42 76 0.0 6.0 0.02 0.02 0.02 84 1012.5
20260505013045 44 342 3.0 16.0 0.01 0.01 0.01 78 1012.9
20260505011538 49 347 3.0 7.0 0.00 0.00 0.00 59 1012.5
20260505010036 48 347 3.0 9.0 0.00 0.00 0.00 60 1012.2
20260505004552 49 1 8.0 14.0 0.00 0.00 0.00 57 1011.8
20260505003042 50 321 8.0 13.0 0.00 0.00 0.00 53 1011.5
20260505001540 51 55 8.0 16.0 0.00 0.00 0.00 52 1011.5
20260505000055 52 6 7.0 17.0 0.00 0.00 0.00 49 1011.1
20260504234546 53 47 5.0 10.0 0.00 0.00 0.00 47 1011.3
20260504233041 53 344 5.0 16.0 0.00 0.00 0.00 47 1011.5
20260504231542 53 29 3.0 9.0 0.00 0.00 0.00 50 1011.6
20260504230057 53 33 2.0 6.0 0.00 0.00 0.00 50 1011.4
20260504224536 53 167 5.0 27.0 0.00 0.00 0.00 49 1011.3
20260504223042 57 192 0.0 3.0 0.00 0.00 0.00 37 1011.0
20260504221554 58 198 1.0 4.0 0.00 0.00 0.00 37 1010.9
20260504220038 59 51 2.0 9.0 0.00 0.00 0.00 36 1010.7
20260504214540 60 60 4.0 11.0 0.00 0.00 0.00 36 1010.6
20260504213045 60 59 3.0 13.0 0.00 0.00 0.00 36 1010.6
20260504211547 60 56 6.0 17.0 0.00 0.00 0.00 33 1010.6
20260504210041 60 357 6.0 11.0 0.00 0.00 0.00 32 1010.7
20260504204541 59 349 6.0 18.0 0.00 0.00 0.00 34 1010.9
20260504203037 60 347 7.0 17.0 0.00 0.00 0.00 34 1011.0
20260504201541 63 71 2.0 13.0 0.00 0.00 0.00 29 1010.7
20260504200040 62 78 1.0 7.0 0.00 0.00 0.00 34 1011.1
20260504194542 62 170 2.0 5.0 0.00 0.00 0.00 30 1011.1
20260504193041 63 199 3.0 5.0 0.00 0.00 0.00 28 1011.2
20260504191540 61 198 1.0 4.0 0.00 0.00 0.00 27 1011.3
20260504190044 59 1 2.0 5.0 0.00 0.00 0.00 29 1011.4
20260504184540 60 1 3.0 6.0 0.00 0.00 0.00 32 1011.6
20260504183156 58 13 4.0 8.0 0.00 0.00 0.00 33 1011.9
20260504081549 46 210 2.0 3.0 0.00 0.00 0.00 45 1014.3